Location: Newark
(44.1667°N, 8.2500°E)
Time: 05:47:00
(UTC+00:00)

Vanguard 2 - Pass Details

Date: 09 December 2019
Orbit: 553 x 2938 km, 32.9° (Epoch: 19 January)

Event Time Altitude Azimuth Distance (km) Brightness Sun altitude
Exits shadow 05:37:44 - 267° (W) 5,866 11.4 -12.5°
Reaches altitude 10° 05:38:12 10° 266° (W) 5,769 11.4 -12.4°
Maximum altitude 05:54:18 46° 202° (SSW) 3,219 10.7 -9.7°
Drops below altitude 10° 06:06:24 10° 135° (SE) 4,401 12.7 -7.7°
Sets 06:09:31 0° 129° (SE) 5,104 13.6 -7.2°
